GW1135 Weather Reports


time (UTC)temp
F
wind
direction
speed
knots
gust
knots
rain 1hr
in
rain 24hr
in
rain mn
in
humidity
%
barometer
mb
20260507071607 47 0.0 0.0 0.00 0.35 0.00 78 1011.3
20260507070402 48 229 0.9 0.9 0.00 0.35 0.00 76 1011.3
20260507065254 48 0.0 0.0 0.00 0.35 0.00 78 1011.2
20260507064036 49 0.0 0.0 0.00 0.35 0.00 76 1011.2
20260507062818 50 231 0.0 0.9 0.00 0.35 0.00 75 1011.3
20260507061551 51 264 0.9 1.7 0.00 0.35 0.00 75 1011.3
20260507060346 51 241 0.9 1.7 0.00 0.35 0.00 76 1011.2
20260507055202 51 269 1.7 1.7 0.00 0.35 0.00 77 1011.1
20260507054019 51 252 0.9 1.7 0.00 0.35 0.00 80 1011.2
20260507052731 51 239 1.7 1.7 0.00 0.35 0.00 80 1011.3
20260507051606 51 212 0.0 0.9 0.00 0.35 0.00 82 1011.1
20260507050444 51 237 0.9 0.9 0.00 0.35 0.00 83 1010.8
20260507045306 51 0.0 0.0 0.00 0.35 0.00 84 1011.0
20260507044018 51 174 0.0 0.9 0.00 0.35 0.00 85 1010.8
20260507042731 51 229 0.0 0.9 0.00 0.35 0.00 85 1010.7
20260507041548 50 0.0 0.0 0.00 0.35 0.00 87 1010.8
20260507040403 50 247 1.7 2.6 0.00 0.35 0.00 87 1010.9
20260507035219 50 0.0 0.0 0.00 0.35 0.35 88 1010.6
20260507033931 50 0.0 0.0 0.00 0.35 0.35 88 1010.7
20260507032746 50 0.0 0.0 0.00 0.35 0.35 88 1010.8
20260507031608 49 211 0.0 0.9 0.00 0.35 0.35 88 1011.1
20260507030402 50 219 0.9 0.9 0.00 0.35 0.35 87 1010.6
20260507025220 51 199 0.0 0.9 0.00 0.35 0.35 84 1010.6
20260507023931 51 197 0.0 0.9 0.00 0.35 0.35 83 1010.6
20260507022747 52 0.0 0.0 0.00 0.35 0.35 82 1010.6
20260507021608 53 63 1.7 2.6 0.00 0.35 0.35 81 1010.9
20260507020403 53 101 0.9 1.7 0.00 0.35 0.35 81 1011.0
20260507015219 53 46 0.9 1.7 0.00 0.35 0.35 81 1011.2
20260507013950 53 191 0.9 0.9 0.00 0.35 0.35 82 1011.1
20260507012747 53 43 0.9 1.7 0.00 0.35 0.35 82 1011.0
20260507011603 53 275 0.9 0.9 0.00 0.35 0.35 82 1011.1
20260507010418 53 0.0 0.0 0.00 0.35 0.35 82 1011.1
20260507005152 53 326 0.9 1.7 0.00 0.35 0.35 82 1010.8
20260507003947 53 55 0.9 2.6 0.00 0.35 0.35 81 1010.4
20260507002748 53 319 1.7 2.6 0.00 0.35 0.35 81 1010.1
20260507001604 53 297 1.7 2.6 0.00 0.35 0.35 81 1010.0
20260507000405 54 21 0.9 2.6 0.00 0.35 0.35 82 1009.6
20260506235218 54 177 1.7 2.6 0.00 0.35 0.35 82 1009.3
20260506233931 54 261 1.7 2.6 0.00 0.35 0.35 82 1009.1
20260506232747 55 328 1.7 2.6 0.00 0.35 0.35 82 1009.1
20260506231604 55 345 1.7 2.6 0.00 0.35 0.35 81 1009.0
20260506230419 55 337 2.6 4.3 0.00 0.35 0.35 81 1008.7
20260506225131 56 270 0.9 1.7 0.00 0.35 0.35 82 1008.5
20260506223948 56 330 2.6 2.6 0.00 0.35 0.35 82 1008.4
20260506222844 56 337 2.6 5.2 0.00 0.35 0.35 82 1008.3
20260506221619 56 347 2.6 4.3 0.00 0.35 0.35 84 1007.9
20260506220420 57 328 2.6 2.6 0.00 0.35 0.35 84 1007.8
20260506215131 57 356 3.5 7.0 0.00 0.35 0.35 84 1007.3
20260506214019 58 340 3.5 5.2 0.00 0.35 0.35 83 1007.1
20260506212818 59 331 5.2 8.7 0.00 0.35 0.35 83 1006.7
20260506211548 64 359 2.6 6.1 0.00 0.35 0.35 79 1006.5
20260506210423 64 227 2.6 4.3 0.00 0.35 0.35 81 1006.0
20260506205219 64 220 2.6 5.2 0.01 0.35 0.35 83 1005.8
20260506203931 64 261 2.6 5.2 0.03 0.35 0.35 82 1005.7
20260506202747 64 287 2.6 6.1 0.03 0.35 0.35 85 1005.6
20260506201643 64 242 1.7 2.6 0.03 0.35 0.35 88 1005.6
20260506200420 63 274 2.6 4.3 0.03 0.35 0.35 89 1005.7
20260506195151 63 225 2.6 5.2 0.02 0.34 0.34 87 1005.6
20260506193930 64 252 2.6 4.3 0.00 0.32 0.32 85 1005.6
20260506192808 64 237 2.6 5.2 0.00 0.32 0.32 84 1005.7
20260506191603 64 211 4.3 6.1 0.00 0.32 0.32 83 1005.5
20260506190418 64 242 3.5 5.2 0.00 0.32 0.32 84 1005.7
20260506185132 64 227 4.3 5.2 0.00 0.32 0.32 84 1005.7
20260506183948 63 235 1.7 4.3 0.00 0.32 0.32 87 1005.7
20260506182803 63 196 2.6 6.1 0.00 0.32 0.32 88 1005.8
20260506181620 62 230 3.5 7.0 0.00 0.32 0.32 89 1005.9
20260506180331 61 215 3.5 7.0 0.00 0.32 0.32 90 1006.0
20260506175147 61 219 4.3 7.0 0.00 0.32 0.32 92 1006.2
20260506174004 60 225 2.6 4.3 0.00 0.32 0.32 93 1006.1
20260506172820 60 232 4.3 7.0 0.00 0.32 0.32 93 1006.2
20260506171531 60 202 2.6 4.3 0.00 0.32 0.32 94 1006.1
20260506170348 60 234 3.5 6.1 0.00 0.32 0.32 94 1006.1
20260506165204 59 213 2.6 2.6 0.00 0.32 0.32 95 1006.2
20260506164019 59 218 2.6 2.6 0.00 0.32 0.32 95 1006.3
20260506162732 59 203 1.7 2.6 0.00 0.32 0.32 95 1006.3
20260506161548 59 231 0.9 0.9 0.00 0.32 0.32 94 1006.6
20260506160423 59 219 0.9 1.7 0.01 0.32 0.32 94 1006.6
20260506155220 59 227 2.6 2.6 0.01 0.32 0.32 94 1006.4
20260506153931 59 217 1.7 2.6 0.02 0.32 0.32 94 1006.3
20260506152749 58 221 1.7 2.6 0.03 0.32 0.32 94 1006.3
20260506151604 59 225 1.7 2.6 0.04 0.32 0.32 94 1006.1
20260506150440 58 205 1.7 2.6 0.04 0.31 0.31 94 1006.1
20260506145132 58 202 1.7 2.6 0.06 0.31 0.31 94 1006.2
20260506143948 58 219 2.6 5.2 0.06 0.30 0.30 94 1006.5
20260506142803 58 219 1.7 2.6 0.06 0.29 0.29 94 1006.3
20260506141620 58 214 1.7 2.6 0.08 0.28 0.28 94 1006.4
20260506140332 58 227 0.9 4.3 0.08 0.27 0.27 94 1006.4
20260506135147 58 203 1.7 2.6 0.08 0.25 0.25 93 1006.4
20260506134004 58 222 1.7 1.7 0.11 0.24 0.24 93 1006.4
20260506132820 58 227 3.5 5.2 0.12 0.23 0.23 93 1006.4
20260506131531 57 204 2.6 5.2 0.12 0.20 0.20 93 1006.5
20260506130348 57 179 0.9 1.7 0.12 0.19 0.19 94 1006.2
20260506125205 57 181 0.0 1.7 0.11 0.17 0.17 94 1006.6
20260506124041 57 257 0.0 0.9 0.08 0.13 0.13 94 1006.9
20260506122840 57 0.0 0.0 0.07 0.11 0.11 94 1007.1
20260506121531 57 0.0 0.0 0.05 0.08 0.08 94 1007.2
20260506120409 57 0.0 0.0 0.06 0.07 0.07 93 1007.0
20260506115208 57 0.0 0.0 0.06 0.06 0.06 93 1006.6
20260506114004 57 0.0 0.0 0.05 0.05 0.05 92 1006.6
20260506112821 57 0.0 0.0 0.04 0.04 0.04 92 1006.5
20260506111552 57 0.0 0.0 0.03 0.03 0.03 91 1006.5
20260506110347 57 0.0 0.0 0.01 0.01 0.01 90 1006.4
20260506105205 57 0.0 0.0 0.00 0.00 0.00 90 1006.1
20260506104019 57 34 0.0 0.9 0.00 0.00 0.00 89 1006.0
20260506102733 57 0.0 0.0 0.00 0.00 0.00 89 1006.2
20260506101548 58 0.0 0.0 0.00 0.00 0.00 88 1006.2
20260506100424 58 35 0.9 1.7 0.00 0.00 0.00 89 1005.9
20260506095245 58 0.0 0.0 0.00 0.00 0.00 87 1005.9
20260506094020 58 0.0 0.0 0.00 0.00 0.00 88 1005.9
20260506092752 58 164 0.9 0.9 0.00 0.00 0.00 88 1005.8
20260506091549 58 77 0.0 0.9 0.00 0.00 0.00 88 1006.0
20260506090404 58 333 0.9 1.7 0.00 0.00 0.00 88 1006.0
20260506085204 59 0.0 0.0 0.00 0.00 0.00 85 1005.8
20260506084019 59 179 0.0 0.9 0.00 0.00 0.00 85 1005.8
20260506082732 59 0.0 0.0 0.00 0.00 0.00 86 1005.9
20260506081619 59 0.0 0.0 0.00 0.00 0.00 85 1005.9
20260506080332 59 0.0 0.0 0.00 0.00 0.00 85 1006.1
20260506072804 60 0.0 0.0 0.00 0.00 0.00 81 1006.0